Eastsound, WA
on Sunday, December 9, 2012

Sunday
Previous Day Next Day
Daily Summary
 ActualAverage (KBLI)Record (KBLI)
Temperature
Mean Temperature °F 38°F  
Max Temperature 39°F 45°F 58°F (1950)
Min Temperature 35°F 32°F 11°F (1972)
Degree Days
Heating Degree Days 28 27  
Month to date heating degree days 233  
Cooling Degree Days 0 0  
Month to date cooling degree days 0  
Year to date cooling degree days 42  
Moisture
Dew Point 36°F   
Average Humidity 94    
Maximum Humidity 100    
Minimum Humidity 75    
Precipitation
Precipitation 0.00 in 0.14 in 1.13 in (1956)
Month to date precipitation 1.42  
Year to date precipitation 33.03  
Wind
Wind Speed 2 mph   
Max Wind Speed 8 mph   
Max Gust Speed 17 mph   
Visibility 6 miles   
Events Rain   

Key: T is trace of precipitation, MM is missing value
Source: NWS Daily Summary
Time(PST)TemperatureDew PointHumidity Pressure Visibility Wind DirectionWind SpeedGust SpeedPrecipitationEvents Conditions
12:15 AM 37.4°F 35.6°F 93% 30.33 in 10.0 miles Calm Calm - N/A   Scattered Clouds
12:35 AM 37.4°F 35.6°F 93% 30.33 in 10.0 miles Calm Calm - N/A   Clear
12:55 AM 35.6°F 35.6°F 100% 30.33 in 10.0 miles Calm Calm - N/A   Mostly Cloudy
1:15 AM 37.4°F 35.6°F 93% 30.33 in 10.0 miles Calm Calm - N/A   Mostly Cloudy
1:35 AM 35.6°F 35.6°F 100% 30.34 in 10.0 miles Calm Calm - N/A   Overcast
1:55 AM 37.4°F 35.6°F 93% 30.34 in 10.0 miles Calm Calm - N/A   Mostly Cloudy
2:15 AM 37.4°F 35.6°F 93% 30.34 in 10.0 miles Calm Calm - N/A   Mostly Cloudy
2:35 AM 35.6°F 35.6°F 100% 30.35 in 10.0 miles Calm Calm - N/A   Scattered Clouds
2:55 AM 37.4°F 35.6°F 93% 30.36 in 10.0 miles Calm Calm - N/A   Mostly Cloudy
3:15 AM 37.4°F 35.6°F 93% 30.35 in 10.0 miles Calm Calm - N/A   Overcast
3:35 AM 37.4°F 35.6°F 93% 30.34 in 10.0 miles Calm Calm - N/A   Scattered Clouds
3:55 AM 37.4°F 35.6°F 93% 30.33 in 10.0 miles Calm Calm - N/A   Partly Cloudy
4:35 AM 37.4°F 35.6°F 93% 30.33 in 10.0 miles Calm Calm - N/A   Mostly Cloudy
4:55 AM 37.4°F 35.6°F 93% 30.34 in 10.0 miles Calm Calm - N/A   Mostly Cloudy
5:15 AM 37.4°F 35.6°F 93% 30.34 in 10.0 miles Calm Calm - N/A   Scattered Clouds
5:35 AM 37.4°F 35.6°F 93% 30.34 in 10.0 miles ESE 4.6 mph - N/A   Partly Cloudy
5:55 AM 39.2°F 33.8°F 81% 30.33 in 8.0 miles ENE 6.9 mph - N/A   Clear
6:15 AM 39.2°F 32.0°F 75% 30.33 in 10.0 miles Calm Calm - N/A   Clear
6:35 AM 39.2°F 32.0°F 75% 30.33 in 10.0 miles East 3.5 mph - N/A   Clear
6:55 AM 39.2°F 32.0°F 75% 30.33 in 10.0 miles ESE 4.6 mph - N/A   Clear
7:15 AM 39.2°F 32.0°F 75% 30.33 in 8.0 miles East 5.8 mph - N/A   Clear
7:35 AM 39.2°F 32.0°F 75% 30.33 in 9.0 miles ESE 4.6 mph - N/A   Scattered Clouds
7:55 AM 39.2°F 32.0°F 75% 30.32 in 8.0 miles East 3.5 mph - N/A   Overcast
8:15 AM 39.2°F 33.8°F 81% 30.33 in 10.0 miles Calm Calm - N/A   Overcast
8:35 AM 39.2°F 33.8°F 81% 30.33 in 7.0 miles NE 5.8 mph - N/A Rain Light Rain
8:55 AM 39.2°F 35.6°F 87% 30.33 in 8.0 miles ENE 3.5 mph - N/A Rain Light Rain
9:15 AM 39.2°F 35.6°F 87% 30.33 in 5.0 miles East 6.9 mph - N/A Rain Light Rain
9:35 AM 39.2°F 33.8°F 81% 30.32 in 2.0 miles East 5.8 mph 17.3 mph N/A   Haze
9:55 AM 39.2°F 33.8°F 81% 30.32 in 8.0 miles ESE 5.8 mph - N/A   Overcast
10:15 AM 37.4°F 35.6°F 93% 30.32 in 3.0 miles East 6.9 mph - N/A Rain Light Rain
10:35 AM 37.4°F 35.6°F 93% 30.33 in 4.0 miles ESE 6.9 mph 16.1 mph N/A Rain Light Rain
10:55 AM 37.4°F 35.6°F 93% 30.32 in 2.5 miles East 6.9 mph - N/A Rain Light Rain
11:15 AM 37.4°F 35.6°F 93% 30.32 in 2.0 miles ESE 5.8 mph - N/A Rain Light Rain
11:35 AM 37.4°F 35.6°F 93% 30.32 in 2.5 miles ENE 8.1 mph - N/A Rain Light Rain
11:55 AM 37.4°F 35.6°F 93% 30.31 in 2.5 miles ENE 6.9 mph - N/A Rain Light Rain
12:15 PM 37.4°F 35.6°F 93% 30.31 in 2.5 miles East 6.9 mph - N/A Rain Light Rain
12:35 PM 37.4°F 35.6°F 93% 30.31 in 1.8 miles East 4.6 mph - N/A Rain Light Rain
12:55 PM 37.4°F 37.4°F 100% 30.31 in 2.0 miles NE 5.8 mph - N/A Rain Light Rain
1:15 PM 37.4°F 37.4°F 100% 30.30 in 1.5 miles ENE 4.6 mph - N/A   Overcast
1:35 PM 37.4°F 37.4°F 100% 30.30 in 2.5 miles ENE 5.8 mph - N/A Rain Light Rain
1:55 PM 37.4°F 37.4°F 100% 30.29 in 1.8 miles ENE 3.5 mph - N/A Rain Light Rain
2:15 PM 37.4°F 37.4°F 100% 30.30 in 1.8 miles ENE 4.6 mph - N/A   Overcast
2:35 PM 37.4°F 37.4°F 100% 30.30 in 1.2 miles ENE 3.5 mph - N/A Rain Light Rain
2:55 PM 37.4°F 37.4°F 100% 30.30 in 2.0 miles NE 6.9 mph - N/A Rain Light Rain
3:15 PM 37.4°F 37.4°F 100% 30.30 in 2.0 miles Calm Calm - N/A Rain Light Rain
3:35 PM 37.4°F 37.4°F 100% 30.31 in 1.8 miles NE 3.5 mph - N/A Rain Light Rain
3:55 PM 37.4°F 37.4°F 100% 30.31 in 2.0 miles NE 4.6 mph - N/A Rain Light Rain
4:15 PM 37.4°F 37.4°F 100% 30.30 in 3.0 miles NE 5.8 mph - N/A   Overcast
4:35 PM 37.4°F 37.4°F 100% 30.31 in 5.0 miles Calm Calm - N/A   Overcast
4:55 PM 37.4°F 37.4°F 100% 30.31 in 5.0 miles Calm Calm - N/A   Overcast
5:15 PM 37.4°F 37.4°F 100% 30.31 in 5.0 miles Calm Calm - N/A   Overcast
5:35 PM 37.4°F 37.4°F 100% 30.31 in 5.0 miles Calm Calm - N/A   Overcast
5:55 PM 37.4°F 37.4°F 100% 30.31 in 3.0 miles Calm Calm - N/A   Overcast
6:15 PM 39.2°F 37.4°F 93% 30.30 in 2.5 miles Calm Calm - N/A   Mostly Cloudy
6:35 PM 37.4°F 37.4°F 100% 30.31 in 2.5 miles Calm Calm - N/A   Overcast
6:55 PM 37.4°F 37.4°F 100% 30.31 in 3.0 miles Calm Calm - N/A   Overcast
7:15 PM 39.2°F 37.4°F 93% 30.32 in 4.0 miles Calm Calm - N/A   Overcast
7:35 PM 39.2°F 39.2°F 100% 30.32 in 6.0 miles Calm Calm - N/A   Overcast
7:55 PM 39.2°F 39.2°F 100% 30.32 in 9.0 miles Calm Calm - N/A   Overcast
8:15 PM 39.2°F 39.2°F 100% 30.33 in 6.0 miles Calm Calm - N/A   Overcast
8:35 PM 39.2°F 39.2°F 100% 30.34 in 10.0 miles Calm Calm - N/A   Overcast
9:15 PM 39.2°F 39.2°F 100% 30.34 in 10.0 miles Calm Calm - N/A   Overcast
9:35 PM 39.2°F 39.2°F 100% 30.33 in 10.0 miles Calm Calm - N/A   Overcast
9:55 PM 39.2°F 39.2°F 100% 30.33 in 10.0 miles Calm Calm - N/A   Overcast
10:15 PM 39.2°F 39.2°F 100% 30.33 in 10.0 miles Calm Calm - N/A   Overcast
10:35 PM 39.2°F 39.2°F 100% 30.34 in 10.0 miles Calm Calm - N/A   Overcast
10:55 PM 39.2°F 37.4°F 93% 30.34 in 10.0 miles North 3.5 mph - N/A   Overcast
11:15 PM 39.2°F 37.4°F 93% 30.35 in 10.0 miles Calm Calm - N/A   Overcast
11:55 PM 39.2°F 39.2°F 100% 30.36 in 10.0 miles Calm Calm - N/A   Overcast
Moon Phase
Dec. 09 Dec. 13 Dec. 20 Dec. 28 Jan. 04
Sunrise:07:53 AM (PST) Moon Rise:03:17 AM (PST)12/9
Sunset:04:15 PM (PST) Moon Set:01:39 PM (PST)12/9

Copyright © 2014 The Weather Underground, Inc.